Tracking 28790 objects as of 19-Apr-2024
HD Live streaming from Space Station
objects crossing your sky now

SL-8 DEB

Track SL-8 DEB now!
10-day predictions


NORAD ID: 15784
Int'l Code: 1979-060D
Perigee: 654.9 km
Apogee: 656.2 km
Inclination: 74.0 °
Period: 97.7 minutes
Semi major axis: 7026 km
RCS: 0.0087 m2 (small)
Launch date: June 28, 1979
Source: Commonwealth of Independent States (former USSR) (CIS)
Launch site: PLESETSK MISSILE AND SPACE COMPLEX (PKMTR)

Note: This is SATELLITE DEBRIS
Your satellite tracking list
Your tracking list is empty




NASA's NSSDC Master Catalog

Two Line Element Set (TLE):
1 15784U 79060D   24110.03125723  .00013127  00000-0  19995-2 0  9997
2 15784  73.9983  86.9688 0000932  84.9162 339.8331 14.73964566 75907
Source of the keplerian elements: AFSPC